Location: Bremen
(53.0793°N, 8.8017°E)
Time: 11:42:43
(UTC+02:00)

Transit 2A Rocket - Pass Details

Date: 25 June 2024
Orbit: 582 x 910 km, 66.7° (Epoch: 19 July)

Event Time Altitude Azimuth Distance (km) Brightness Sun altitude
Rises 02:47:47 0° 311° (NW) 3,417 8.7 -11.6°
Reaches altitude 10° 02:50:36 10° 323° (NW) 2,522 8.2 -11.4°
Maximum altitude 02:55:36 27° 21° (NNE) 1,645 7.7 -11.2°
Drops below altitude 10° 03:00:44 10° 79° (ENE) 2,601 8.2 -10.9°
Sets 03:03:40 0° 91° (E) 3,543 8.7 -10.7°
